Zurück zum Katalog

STARLINK-36502

AktivKommunikationVLEO
NORAD 67627·PAYLOAD·🇺🇸 United States

Gestartet Jan 30, 2026 von Cape Canaveral Space Force Station

Loading…

Nächste Überflüge (nächste 24 Stunden)

TLE

AktuellSource: CelesTrak SupGP

Epoche: Sep 14, 2026, 23:00 UTC

1 67627C 26020L   26257.95881944 -.00037596  00000+0 -13617-2 0  2576
2 67627  43.0005 150.7932 0001350 269.3552 358.0953 15.27597932    14

Verfolge STARLINK-36502 in Echtzeit mit AllMySat

Download on the App Store